[[{"header":{"parameterUnit":"m.s-1","parameterCategory":1,"la1":30.2991,"la2":30.254,"lo1":-89.0895,"lo2":-89.0444,"dy":0.0017,"dx":0.0017,"nx":28,"ny":28,"refTime":"2024-08-01T03:00:00:Z","depth":0,"parameterNumber":2,"parameterNumberName":"U-component_of_WINDS"},"data":[0,0,0,0,0,0,0,0,0,0,0,0,0,0,0,0,0,0,0,0,0,0,0,0,0,0,0,0,0,0,0,0,0,0,0,0,0,0,0,0,0,0,0,0,0,0,0,0,0,0,0,0,0,0,0,0,0,0,0.9118,0.9119,0,0.9211,0.9212,0.9213,0.9234,0.9233,0.9233,0.9232,0.9331,0.9334,0.9337,0,0,0,0,0,0,0,0,0,0,0,0,0,0.8958,0.8961,0.9118,0.9119,0.912,0.9211,0.9212,0.9214,0.9234,0.9233,0.9232,0.9232,0.9329,0.9333,0.9337,0,0,0,0,0,0,0,0,0,0,0,0,0,0.9037,0.8962,0.9118,0.9141,0.9144,0.9211,0.9213,0.9214,0.9234,0.9233,0.9232,0.9231,0.9328,0.9333,0.9338,0.9389,0,0,0.9353,0.9355,0,0,0,0,0,0,0,0,0.9033,0.9043,0.9137,0.914,0.9143,0.921,0.9192,0.9273,0.9234,0.92,0.9232,0.9231,0.9291,0.9299,0.9319,0.9393,0.9397,0.9353,0.9356,0.9358,0.936,0,0,0,0,0,0,0,0.9027,0.9039,0.9155,0.9138,0.9142,0.9147,0.9158,0.9208,0.9251,0.9203,0.9205,0.9215,0.9293,0.9314,0.9322,0.9399,0.9353,0.9357,0.936,0.9362,0.9517,0.9518,0,0,0,0,0,0,0.9017,0.9034,0.9152,0.9158,0.9084,0.9151,0.9162,0.919,0.925,0.9258,0.9216,0.9216,0.9307,0.9316,0.9325,0.9387,0.9358,0.9363,0.9366,0.9516,0.9517,0.9519,0,0,0,0,0,0,0.9014,0.9028,0.9148,0.9097,0.9112,0.9155,0.9185,0.9192,0.9213,0.926,0.9268,0.923,0.9306,0.9318,0.9372,0.9391,0.9365,0.937,0.9515,0.9516,0.9518,0.9512,0,0,0,0,0,0,0.9009,0.9026,0.9046,0.9097,0.9115,0.9193,0.9186,0.9194,0.9221,0.9222,0.9275,0.9283,0.9306,0.9364,0.9377,0.9397,0.9373,0.9513,0.9515,0.9517,0.9511,0.9513,0.9516,0,0,0,0,0,0.9003,0.9042,0.9047,0.9061,0.914,0.9194,0.9205,0.923,0.9223,0.9243,0.9272,0.9281,0.9387,0.937,0.9384,0.9406,0.9512,0.9515,0.9517,0.951,0.9513,0.9515,0,0,0,0,0,0,0.8993,0.9049,0.9055,0.9111,0.9147,0.9197,0.9224,0.9233,0.9273,0.9272,0.9303,0.9315,0.9366,0.9392,0.9372,0.9457,0.9449,0.9455,0.9438,0.9442,0.9444,0.9437,0.9377,0,0,0,0,0,0.8997,0.9036,0.9082,0.9127,0.9145,0.9181,0.9205,0.9221,0.9261,0.9277,0.9311,0.9349,0.9391,0.9418,0.9459,0.9514,0.9526,0.9536,0.9539,0.9541,0.9545,0.9574,0.9579,0.9527,0.9527,0.9527,0,0,0.9006,0.9041,0.9064,0.9126,0.9156,0.9195,0.9194,0.9236,0.9265,0.9284,0.9336,0.9361,0.9407,0.9461,0.9486,0.9484,0.9562,0.9544,0.9545,0.9549,0.9577,0.9582,0.9587,0.9529,0.9529,0.9528,0,0,0.9043,0.9073,0.9113,0.9143,0.9188,0.9211,0.922,0.9269,0.9286,0.9338,0.9352,0.9388,0.946,0.9491,0.9516,0.9561,0.957,0.9574,0.9587,0.9615,0.9619,0.9623,0.9637,0.9643,0.9578,0.9578,0.9578,0,0.9048,0.9107,0.9132,0.9173,0.9199,0.9216,0.9256,0.9284,0.9341,0.9359,0.9354,0.9443,0.9475,0.9535,0.9546,0.9566,0.9577,0.9568,0.9616,0.962,0.9624,0.9639,0.9644,0.9578,0.9578,0.9578,0.9578,0,0.9112,0.9152,0.9179,0.9231,0.926,0.9301,0.9332,0.9358,0.9371,0.9395,0.9447,0.9486,0.9534,0.955,0.9564,0.9612,0.9608,0.961,0.9602,0.9628,0.9643,0.9648,0.9578,0.9578,0.9578,0.9578,0,0,0.9145,0.9209,0.9218,0.9241,0.9291,0.9323,0.9364,0.941,0.9431,0.947,0.9504,0.9563,0.9564,0.9592,0.961,0.9635,0.9666,0.9633,0.9634,0.9637,0.9719,0.9717,0.9723,0.9672,0.9673,0.9674,0.9715,0,0.9187,0.9258,0.9281,0.9341,0.9378,0.9394,0.9429,0.9463,0.9486,0.9521,0.9547,0.9587,0.9586,0.9603,0.9628,0.9657,0.9683,0.9654,0.9704,0.9706,0.9691,0.9731,0.973,0.9766,0.9721,0.9722,0.9723,0,0.9245,0.9282,0.9345,0.9388,0.9405,0.9436,0.9478,0.9512,0.9551,0.9566,0.9596,0.9611,0.9653,0.9643,0.9702,0.9682,0.9703,0.972,0.9722,0.9728,0.9715,0.9736,0.9779,0.9784,0.9732,0.9731,0.9731,0,0.9261,0.9327,0.9373,0.9392,0.9444,0.9465,0.9488,0.9526,0.9552,0.9589,0.9606,0.9648,0.9671,0.9704,0.973,0.972,0.9785,0.9778,0.9798,0.9798,0.9811,0.981,0.9857,0.9827,0.9827,0.9826,0.9826,0,0.9304,0.9342,0.938,0.9408,0.9451,0.9476,0.9518,0.9542,0.9575,0.9608,0.9624,0.9655,0.9688,0.9722,0.9743,0.9787,0.9798,0.9811,0.9816,0.9809,0.9807,0.9824,0.9821,0.9828,0.9828,0.9827,0.9827,0,0.933,0.9357,0.9408,0.9452,0.9464,0.9493,0.9531,0.9559,0.9582,0.9623,0.9634,0.967,0.9712,0.9741,0.9795,0.9808,0.9856,0.9861,0.9842,0.9845,0.9863,0.986,0.9921,0.993,0.9895,0.9895,0.9895,0,0.9355,0.9384,0.9431,0.9454,0.9476,0.9513,0.9538,0.9564,0.959,0.9635,0.9657,0.9699,0.9735,0.98,0.9831,0.9872,0.9878,0.9896,0.9884,0.9876,0.9877,0.9874,0.9877,0.9898,0.9898,0.9899,0.9899,0,0.9397,0.9409,0.9444,0.9484,0.9513,0.9546,0.9579,0.9597,0.9628,0.9656,0.9698,0.9725,0.9779,0.982,0.9864,0.9888,0.9898,0.9902,0.9909,0.9902,0.9889,0.9895,0.9846,0.9901,0.9901,0.99,0.99,0.99,0.9423,0.9449,0.9485,0.9523,0.955,0.958,0.9608,0.9633,0.9668,0.9713,0.9727,0.977,0.9807,0.9866,0.989,0.9924,0.9923,0.9933,0.9935,0.9937,0.9936,0.9884,0.9932,0.9932,0.9932,0.9932,0.9932,0,0.9464,0.9488,0.9523,0.9568,0.9598,0.9604,0.964,0.9665,0.9702,0.9735,0.9769,0.9816,0.9856,0.9889,0.993,0.9951,0.9957,0.9961,0.9959,0.9964,0.9936,0.9925,0.9955,0.9955,0.9955,0.9955,0.9955,0.9955,0.949,0.9533,0.9548,0.9605,0.9629,0.967,0.969,0.9717,0.9744,0.9795,0.9828,0.9849,0.9882,0.9925,0.9961,0.997,0.9984,0.9987,0.9997,0.9969,0.9967,0.9964,0.9954,0.999,0.999,1.0022,1.0023,1.0023]},{"header":{"parameterUnit":"m.s-1","parameterCategory":1,"la1":30.2991,"la2":30.254,"lo1":-89.0895,"lo2":-89.0444,"dy":0.0017,"dx":0.0017,"nx":28,"ny":28,"refTime":"2024-08-01T03:00:00:Z","depth":0,"parameterNumber":3,"parameterNumberName":"V-component_of_WINDS"},"data":[0,0,0,0,0,0,0,0,0,0,0,0,0,0,0,0,0,0,0,0,0,0,0,0,0,0,0,0,0,0,0,0,0,0,0,0,0,0,0,0,0,0,0,0,0,0,0,0,0,0,0,0,0,0,0,0,0,0,3.9735,3.9735,0,3.969,3.9689,3.9689,3.9679,3.9679,3.968,3.968,3.9627,3.9625,3.9624,0,0,0,0,0,0,0,0,0,0,0,0,0,3.9806,3.9805,3.9735,3.9735,3.9734,3.969,3.9689,3.9689,3.9679,3.9679,3.968,3.968,3.9628,3.9626,3.9623,0,0,0,0,0,0,0,0,0,0,0,0,0,3.977,3.9805,3.9735,3.9724,3.9723,3.969,3.9689,3.9688,3.9679,3.9679,3.968,3.968,3.9628,3.9626,3.9623,3.9597,0,0,3.9615,3.9614,0,0,0,0,0,0,0,0,3.9772,3.9767,3.9726,3.9725,3.9723,3.9691,3.9695,3.9657,3.9679,3.9695,3.968,3.9681,3.9647,3.9643,3.9633,3.9594,3.9592,3.9615,3.9613,3.9612,3.9612,0,0,0,0,0,0,0,3.9774,3.9769,3.9717,3.9726,3.9724,3.9719,3.9714,3.9688,3.9669,3.9694,3.9693,3.9688,3.9647,3.9636,3.9632,3.9591,3.9615,3.9613,3.9611,3.961,3.9525,3.9524,0,0,0,0,0,0,3.978,3.9771,3.9718,3.9716,3.9749,3.9717,3.9712,3.97,3.9669,3.9665,3.9688,3.9688,3.964,3.9635,3.963,3.9595,3.9612,3.961,3.9608,3.9526,3.9525,3.9524,0,0,0,0,0,0,3.9781,3.9775,3.972,3.9743,3.9736,3.9716,3.9703,3.9699,3.9689,3.9665,3.966,3.9681,3.964,3.9634,3.9605,3.9593,3.9609,3.9606,3.9527,3.9525,3.9524,3.9527,0,0,0,0,0,0,3.9783,3.9776,3.9767,3.9743,3.9735,3.9698,3.9702,3.9698,3.9685,3.9685,3.9657,3.9653,3.964,3.9609,3.9602,3.959,3.9604,3.9527,3.9526,3.9525,3.9527,3.9526,3.9524,0,0,0,0,0,3.9786,3.9768,3.9767,3.976,3.9724,3.9697,3.9692,3.968,3.9684,3.9674,3.9658,3.9654,3.9596,3.9606,3.9599,3.9585,3.9528,3.9526,3.9525,3.9528,3.9526,3.9524,0,0,0,0,0,0,3.979,3.9765,3.9763,3.9738,3.972,3.9696,3.9683,3.9679,3.9658,3.9658,3.9642,3.9636,3.9607,3.9593,3.9605,3.9557,3.9562,3.9559,3.9567,3.9565,3.9563,3.9566,3.9602,0,0,0,0,0,3.9788,3.9771,3.9749,3.9729,3.972,3.9703,3.9691,3.9684,3.9664,3.9655,3.9638,3.9616,3.9593,3.9578,3.9556,3.9526,3.9518,3.9513,3.9511,3.951,3.9507,3.9488,3.9484,3.9519,3.9519,3.9519,0,0,3.9783,3.9768,3.9758,3.9729,3.9715,3.9695,3.9697,3.9676,3.966,3.9651,3.9623,3.961,3.9585,3.9555,3.954,3.9542,3.9496,3.9508,3.9507,3.9505,3.9486,3.9482,3.9479,3.9518,3.9518,3.9518,0,0,3.9765,3.9752,3.9733,3.9719,3.9697,3.9686,3.9681,3.9658,3.9649,3.9621,3.9613,3.9593,3.9555,3.9537,3.9523,3.9496,3.949,3.9489,3.9481,3.9462,3.9459,3.9457,3.9445,3.9442,3.9487,3.9487,3.9487,0,3.9761,3.9733,3.9723,3.9703,3.969,3.9683,3.9662,3.9648,3.9619,3.9609,3.9612,3.9562,3.9545,3.951,3.9504,3.9493,3.9485,3.9492,3.9461,3.9458,3.9456,3.9445,3.9441,3.9487,3.9487,3.9487,3.9487,0,3.9729,3.971,3.9696,3.9671,3.9656,3.9636,3.962,3.9606,3.96,3.9587,3.9557,3.9537,3.9509,3.95,3.9493,3.9463,3.9465,3.9465,3.9469,3.9453,3.9442,3.9438,3.9487,3.9487,3.9487,3.9487,0,0,3.9711,3.9681,3.9676,3.9663,3.9639,3.9622,3.96,3.9576,3.9563,3.9543,3.9522,3.949,3.9489,3.9473,3.9463,3.9447,3.9425,3.9449,3.9448,3.9444,3.9389,3.9388,3.9383,3.9422,3.9421,3.9421,3.939,0,3.9688,3.9651,3.9641,3.9609,3.9589,3.9582,3.9563,3.9544,3.9532,3.9511,3.9496,3.9473,3.9475,3.9465,3.9449,3.9432,3.9414,3.9434,3.94,3.9399,3.9405,3.9378,3.9377,3.935,3.9386,3.9385,3.9385,0,3.9657,3.9638,3.9604,3.9581,3.9573,3.9556,3.9531,3.9513,3.9491,3.9482,3.9464,3.9456,3.943,3.9437,3.94,3.9414,3.9399,3.9388,3.9387,3.9381,3.939,3.937,3.9341,3.9336,3.9378,3.9379,3.9379,0,3.9645,3.9611,3.9586,3.9576,3.9549,3.9537,3.9524,3.9503,3.9488,3.9466,3.9456,3.943,3.9416,3.9395,3.9379,3.9386,3.9342,3.9348,3.9332,3.9332,3.9322,3.9322,3.9287,3.9315,3.9315,3.9315,3.9315,0,3.9619,3.9598,3.958,3.9565,3.954,3.9528,3.9503,3.949,3.9471,3.9451,3.9443,3.9423,3.9404,3.9382,3.9369,3.9338,3.9332,3.9322,3.9319,3.9322,3.9323,3.9311,3.9312,3.9314,3.9314,3.9315,3.9315,0,3.9601,3.9589,3.9561,3.9538,3.9532,3.9514,3.9493,3.9476,3.9464,3.9438,3.9431,3.9411,3.9383,3.9366,3.9331,3.9322,3.9288,3.9286,3.9296,3.9294,3.9278,3.9279,3.9232,3.9225,3.926,3.9259,3.9259,0,3.9585,3.9569,3.9545,3.9532,3.952,3.9499,3.9484,3.9471,3.9455,3.9429,3.9414,3.9387,3.9364,3.9321,3.9301,3.9273,3.9269,3.9255,3.9264,3.9268,3.9266,3.9267,3.9264,3.9252,3.9252,3.9252,3.9252,0,3.9557,3.9552,3.9532,3.951,3.9493,3.9475,3.9456,3.9445,3.9428,3.941,3.9383,3.9366,3.9331,3.9302,3.9273,3.9257,3.925,3.9249,3.9243,3.9246,3.9251,3.9246,3.9289,3.925,3.925,3.925,3.925,3.925,3.9539,3.9523,3.9504,3.9482,3.9466,3.9449,3.9432,3.9417,3.9396,3.9367,3.936,3.9331,3.9307,3.9267,3.9251,3.9226,3.9228,3.922,3.9218,3.9216,3.9214,3.9257,3.9221,3.9221,3.9221,3.9221,3.9221,0,3.9509,3.9496,3.9476,3.945,3.9432,3.943,3.9409,3.9393,3.9369,3.9348,3.9326,3.9294,3.9267,3.9245,3.9216,3.92,3.9196,3.9193,3.9193,3.9188,3.9216,3.9223,3.9196,3.9196,3.9196,3.9196,3.9196,3.9196,3.9491,3.9465,3.9457,3.9422,3.9408,3.9382,3.9369,3.9352,3.9335,3.9301,3.9279,3.9266,3.9243,3.9213,3.9186,3.918,3.9169,3.9166,3.9159,3.9184,3.9187,3.9189,3.9196,3.9164,3.9164,3.9133,3.9133,3.9133]}]]